QPF
0.03 0.04 0.05 0.06 0.10 0.11 0.11 0.11 0.07 0.05 0.06 0.06 0.07 0.08 0.07 0.07 0.08 0.09 0.10 0.10 0.09 0.08 0.07 0.05 0.05 0.06 0.06 0.06 0.04 0.03 0.04 0.04 0.03 0.02 0.02 0.02 0.02 0.03 0.03 0.03 0.03 0.03 0.02
0.02 0.04 0.07 0.09 0.09 0.09 0.10 0.08 0.05 0.05 0.04 0.04 0.05 0.05 0.06 0.07 0.07 0.08 0.09 0.09 0.10 0.11 0.11 0.10 0.08 0.08 0.08 0.07 0.05 0.05 0.04 0.03 0.04 0.03 0.03 0.01 0.01 0.01 0.01 0.01 0.01 0.01 0.02
0.02 0.04 0.08 0.08 0.07 0.07 0.06 0.03 0.03 0.05 0.06 0.05 0.05 0.05 0.07 0.07 0.06 0.06 0.06 0.07 0.08 0.10 0.10 0.10 0.09 0.08 0.07 0.06 0.05 0.05 0.05 0.05 0.05 0.04 0.03 0.02 0.01 0.01 0.01 0.01 0.01 0.02 0.03
0.02 0.03 0.05 0.04 0.04 0.03 0.02 0.02 0.02 0.04 0.06 0.06 0.04 0.05 0.05 0.06 0.06 0.05 0.05 0.07 0.08 0.09 0.09 0.10 0.10 0.08 0.07 0.06 0.05 0.04 0.06 0.07 0.06 0.05 0.03 0.02 0.01 0.01 0.01 0.01 0.02 0.02 0.03
0.03 0.04 0.04 0.05 0.05 0.02 0.02 0.03 0.02 0.03 0.04 0.04 0.04 0.04 0.04 0.06 0.07 0.08 0.08 0.09 0.09 0.09 0.10 0.10 0.09 0.07 0.05 0.05 0.04 0.04 0.04 0.05 0.06 0.06 0.03 0.02 0.01 0.01 0.01 0.02 0.02 0.02 0.02
0.03 0.04 0.04 0.03 0.02 0.02 0.03 0.03 0.03 0.04 0.04 0.04 0.05 0.06 0.06 0.07 0.08 0.07 0.07 0.07 0.07 0.07 0.07 0.07 0.06 0.05 0.04 0.03 0.03 0.03 0.03 0.03 0.05 0.06 0.06 0.04 0.03 0.03 0.02 0.02 0.02 0.02 0.02
0.03 0.04 0.03 0.01 0.02 0.02 0.03 0.03 0.03 0.03 0.03 0.03 0.05 0.07 0.10 0.10 0.07 0.06 0.07 0.06 0.06 0.07 0.05 0.04 0.04 0.03 0.02 0.03 0.03 0.03 0.03 0.02 0.03 0.04 0.05 0.05 0.04 0.03 0.02 0.02 0.02 0.02 0.02
0.03 0.03 0.02 0.01 0.02 0.02 0.03 0.02 0.02 0.03 0.03 0.04 0.06 0.08 0.11 0.09 0.07 0.07 0.07 0.07 0.08 0.07 0.05 0.04 0.03 0.02 0.02 0.02 0.03 0.02 0.02 0.02 0.02 0.02 0.04 0.05 0.06 0.06 0.04 0.03 0.03 0.03 0.02
0.03 0.02 0.01 0.01 0.01 0.01 0.02 0.03 0.03 0.03 0.04 0.05 0.06 0.07 0.09 0.10 0.07 0.06 0.07 0.08 0.07 0.06 0.05 0.04 0.04 0.03 0.03 0.03 0.03 0.03 0.02 0.02 0.02 0.02 0.03 0.03 0.04 0.04 0.04 0.03 0.03 0.03 0.03
0.04 0.03 0.02 0.02 0.02 0.02 0.02 0.03 0.04 0.04 0.03 0.04 0.06 0.06 0.07 0.09 0.09 0.09 0.09 0.09 0.07 0.05 0.04 0.03 0.03 0.03 0.04 0.03 0.03 0.03 0.03 0.03 0.03 0.03 0.03 0.03 0.03 0.03 0.03 0.03 0.03 0.03 0.03
0.06 0.07 0.04 0.03 0.03 0.03 0.03 0.03 0.05 0.04 0.03 0.04 0.07 0.08 0.07 0.07 0.09 0.10 0.10 0.07 0.06 0.05 0.04 0.03 0.04 0.04 0.03 0.02 0.02 0.02 0.02 0.03 0.03 0.03 0.03 0.02 0.03 0.03 0.03 0.03 0.03 0.03 0.03
0.05 0.06 0.05 0.04 0.03 0.02 0.03 0.04 0.04 0.04 0.04 0.06 0.11 0.13 0.12 0.10 0.08 0.07 0.07 0.05 0.04 0.04 0.03 0.03 0.04 0.04 0.03 0.02 0.02 0.03 0.03 0.03 0.03 0.03 0.03 0.03 0.03 0.03 0.03 0.03 0.04 0.05 0.05
0.03 0.02 0.03 0.05 0.04 0.03 0.03 0.05 0.06 0.08 0.10 0.12 0.14 0.15 0.12 0.09 0.06 0.05 0.06 0.05 0.04 0.03 0.03 0.02 0.03 0.03 0.03 0.03 0.03 0.03 0.03 0.04 0.03 0.02 0.02 0.03 0.03 0.03 0.03 0.04 0.05 0.05 0.05
0.02 0.02 0.03 0.06 0.05 0.05 0.03 0.03 0.04 0.05 0.05 0.06 0.07 0.09 0.07 0.05 0.04 0.04 0.04 0.04 0.03 0.03 0.03 0.03 0.04 0.04 0.04 0.05 0.03 0.03 0.03 0.03 0.03 0.03 0.03 0.03 0.04 0.04 0.05 0.05 0.05 0.04 0.05
0.02 0.02 0.04 0.05 0.05 0.07 0.07 0.04 0.04 0.05 0.05 0.06 0.06 0.04 0.04 0.03 0.03 0.03 0.03 0.04 0.03 0.03 0.02 0.03 0.04 0.05 0.05 0.05 0.04 0.03 0.03 0.04 0.04 0.03 0.03 0.03 0.03 0.04 0.05 0.04 0.04 0.03 0.04
0.03 0.03 0.04 0.03 0.05 0.07 0.06 0.05 0.07 0.05 0.05 0.05 0.05 0.04 0.03 0.02 0.03 0.03 0.03 0.03 0.03 0.02 0.02 0.02 0.03 0.03 0.03 0.03 0.02 0.02 0.02 0.02 0.02 0.02 0.02 0.02 0.02 0.02 0.02 0.02 0.02 0.02 0.02
0.03 0.03 0.04 0.04 0.05 0.05 0.05 0.03 0.03 0.04 0.05 0.04 0.03 0.03 0.02 0.02 0.03 0.03 0.03 0.03 0.03 0.03 0.02 0.02 0.01 0.01 0.02 0.02 0.01 0.01 0.01 0.02 0.02 0.02 0.02 0.01 0.01 0.01 0.01 0.01 0.01 0.01 0.02
0.04 0.03 0.03 0.04 0.03 0.03 0.03 0.02 0.02 0.02 0.03 0.02 0.02 0.02 0.03 0.03 0.03 0.03 0.03 0.04 0.04 0.03 0.02 0.02 0.01 0.01 0.01 0.01 0.01 0.01 0.01 0.01 0.01 0.01 0.01 0.01 0.01 0.01 0.02 0.02 0.01 0.02 0.02
0.05 0.04 0.04 0.04 0.03 0.03 0.03 0.02 0.02 0.02 0.02 0.02 0.02 0.02 0.02 0.02 0.02 0.03 0.03 0.04 0.03 0.02 0.02 0.02 0.01 0.02 0.01 0.02 0.02 0.01 0.01 0.01 0.01 0.01 0.01 0.01 0.01 0.02 0.02 0.02 0.02 0.01 0.01
0.06 0.05 0.03 0.03 0.04 0.03 0.03 0.02 0.02 0.03 0.03 0.03 0.03 0.03 0.02 0.02 0.03 0.03 0.03 0.03 0.01 0.01 0.01 0.01 0.01 0.01 0.01 0.02 0.02 0.01 0.01 0.01 0.01 0.01 0.01 0.01 0.01 0.01 0.01 0.01 0.01 0.01 0.01
0.04 0.06 0.06 0.04 0.04 0.04 0.04 0.04 0.03 0.05 0.04 0.03 0.03 0.03 0.03 0.03 0.03 0.02 0.02 0.02 0.02 0.01 0.01 0.02 0.02 0.01 0.02 0.02 0.02 0.01 0.01 0.01 0.01 0.02 0.01 0.01 0.01 0.01 0.01 0.01 0.01 0.01 0.01
0.02 0.04 0.04 0.03 0.03 0.04 0.05 0.03 0.03 0.05 0.04 0.03 0.02 0.03 0.04 0.04 0.02 0.02 0.02 0.03 0.04 0.03 0.03 0.03 0.03 0.02 0.02 0.02 0.02 0.02 0.03 0.03 0.02 0.02 0.03 0.02 0.01 0.01 0.01 0.01 0.01 0.01 0.01
0.01 0.02 0.02 0.02 0.04 0.05 0.04 0.03 0.03 0.03 0.03 0.03 0.03 0.03 0.04 0.04 0.03 0.03 0.03 0.04 0.04 0.04 0.05 0.06 0.07 0.05 0.05 0.04 0.05 0.05 0.06 0.05 0.03 0.03 0.04 0.03 0.02 0.02 0.02 0.01 0.01 0.01 0.02
0.01 0.02 0.02 0.02 0.02 0.03 0.02 0.02 0.02 0.02 0.03 0.03 0.03 0.02 0.02 0.02 0.02 0.04 0.04 0.04 0.04 0.04 0.04 0.04 0.05 0.05 0.04 0.05 0.05 0.04 0.06 0.06 0.04 0.04 0.05 0.05 0.04 0.03 0.03 0.03 0.02 0.02 0.02
0.01 0.01 0.02 0.02 0.01 0.01 0.01 0.01 0.02 0.02 0.01 0.02 0.02 0.01 0.01 0.01 0.02 0.03 0.03 0.03 0.03 0.03 0.03 0.03 0.03 0.03 0.02 0.02 0.01 0.02 0.03 0.04 0.03 0.04 0.04 0.04 0.03 0.03 0.02 0.02 0.02 0.02 0.02
0.02 0.01 0.01 0.01 0.01 0.01 0.01 0.02 0.02 0.01 0.02 0.02 0.01 0.01 0.01 0.01 0.02 0.03 0.03 0.02 0.03 0.03 0.02 0.02 0.02 0.02 0.02 0.01 0.01 0.00 0.01 0.01 0.02 0.02 0.02 0.02 0.02 0.01 0.02 0.02 0.02 0.02 0.02
MSLP
1015.63 1015.70 1015.74 1015.64 1015.35 1014.84 1014.14 1013.30 1012.40 1011.55 1010.82 1010.27 1009.94 1009.80 1009.82 1009.94 1010.11 1010.27 1010.40 1010.48 1010.52 1010.54 1010.57 1010.62 1010.73 1010.87 1011.06 1011.25 1011.42 1011.54 1011.59 1011.53 1011.36 1011.09 1010.73 1010.30 1009.82 1009.34 1008.89 1008.48 1008.16 1007.93 1007.81
1015.93 1016.01 1016.07 1016.03 1015.81 1015.39 1014.78 1014.03 1013.21 1012.42 1011.72 1011.17 1010.79 1010.57 1010.49 1010.49 1010.54 1010.58 1010.59 1010.58 1010.56 1010.54 1010.55 1010.61 1010.72 1010.88 1011.06 1011.25 1011.40 1011.50 1011.50 1011.41 1011.21 1010.92 1010.54 1010.10 1009.63 1009.14 1008.67 1008.23 1007.86 1007.57 1007.37
1016.34 1016.36 1016.38 1016.32 1016.12 1015.76 1015.24 1014.59 1013.88 1013.19 1012.56 1012.06 1011.68 1011.44 1011.29 1011.20 1011.14 1011.07 1010.99 1010.90 1010.81 1010.75 1010.74 1010.79 1010.89 1011.04 1011.21 1011.36 1011.48 1011.53 1011.50 1011.38 1011.16 1010.86 1010.50 1010.08 1009.63 1009.16 1008.69 1008.24 1007.82 1007.45 1007.15
1016.91 1016.82 1016.74 1016.60 1016.38 1016.03 1015.57 1015.01 1014.42 1013.83 1013.31 1012.88 1012.55 1012.31 1012.13 1011.99 1011.85 1011.70 1011.55 1011.39 1011.25 1011.15 1011.11 1011.14 1011.21 1011.33 1011.46 1011.57 1011.63 1011.64 1011.57 1011.42 1011.20 1010.92 1010.59 1010.22 1009.81 1009.38 1008.92 1008.45 1007.98 1007.54 1007.13
1017.65 1017.41 1017.19 1016.94 1016.65 1016.28 1015.84 1015.35 1014.85 1014.37 1013.95 1013.60 1013.33 1013.12 1012.94 1012.77 1012.59 1012.39 1012.18 1011.98 1011.80 1011.67 1011.59 1011.58 1011.62 1011.69 1011.77 1011.82 1011.82 1011.78 1011.67 1011.50 1011.29 1011.03 1010.74 1010.43 1010.07 1009.68 1009.25 1008.77 1008.26 1007.74 1007.23
1018.49 1018.11 1017.74 1017.38 1016.99 1016.57 1016.12 1015.66 1015.22 1014.83 1014.49 1014.21 1013.99 1013.81 1013.64 1013.46 1013.26 1013.04 1012.80 1012.56 1012.35 1012.19 1012.09 1012.04 1012.03 1012.05 1012.06 1012.04 1011.98 1011.88 1011.73 1011.55 1011.34 1011.11 1010.86 1010.60 1010.30 1009.96 1009.55 1009.07 1008.53 1007.94 1007.34
1019.34 1018.86 1018.38 1017.90 1017.41 1016.93 1016.45 1016.00 1015.58 1015.23 1014.94 1014.71 1014.52 1014.36 1014.20 1014.01 1013.80 1013.56 1013.30 1013.05 1012.82 1012.63 1012.50 1012.41 1012.36 1012.32 1012.26 1012.18 1012.06 1011.91 1011.72 1011.51 1011.29 1011.08 1010.87 1010.65 1010.39 1010.08 1009.70 1009.22 1008.66 1008.04 1007.37
1020.13 1019.57 1019.01 1018.45 1017.90 1017.36 1016.84 1016.36 1015.95 1015.60 1015.31 1015.09 1014.91 1014.75 1014.58 1014.39 1014.16 1013.91 1013.64 1013.38 1013.14 1012.94 1012.78 1012.66 1012.56 1012.47 1012.36 1012.22 1012.05 1011.83 1011.60 1011.36 1011.13 1010.91 1010.71 1010.51 1010.28 1009.99 1009.63 1009.17 1008.60 1007.96 1007.26
1020.75 1020.18 1019.59 1018.99 1018.39 1017.81 1017.26 1016.75 1016.31 1015.94 1015.63 1015.39 1015.18 1015.00 1014.81 1014.59 1014.35 1014.09 1013.82 1013.55 1013.30 1013.09 1012.92 1012.78 1012.65 1012.52 1012.37 1012.18 1011.95 1011.69 1011.41 1011.13 1010.86 1010.62 1010.41 1010.19 1009.96 1009.69 1009.33 1008.88 1008.33 1007.69 1006.99
1021.15 1020.61 1020.04 1019.45 1018.84 1018.25 1017.67 1017.14 1016.66 1016.25 1015.90 1015.61 1015.37 1015.14 1014.92 1014.68 1014.42 1014.15 1013.87 1013.61 1013.36 1013.15 1012.97 1012.82 1012.68 1012.53 1012.34 1012.12 1011.85 1011.55 1011.22 1010.89 1010.57 1010.29 1010.02 1009.77 1009.52 1009.22 1008.86 1008.42 1007.89 1007.27 1006.59
1021.34 1020.85 1020.33 1019.78 1019.20 1018.61 1018.03 1017.48 1016.97 1016.52 1016.13 1015.79 1015.50 1015.24 1014.98 1014.72 1014.45 1014.18 1013.90 1013.64 1013.40 1013.20 1013.03 1012.88 1012.73 1012.57 1012.37 1012.12 1011.82 1011.48 1011.10 1010.71 1010.34 1009.98 1009.65 1009.34 1009.04 1008.71 1008.33 1007.89 1007.37 1006.78 1006.14
1021.35 1020.93 1020.47 1019.98 1019.45 1018.89 1018.32 1017.77 1017.24 1016.76 1016.34 1015.97 1015.64 1015.35 1015.07 1014.80 1014.53 1014.26 1013.99 1013.74 1013.52 1013.33 1013.16 1013.02 1012.88 1012.71 1012.50 1012.24 1011.92 1011.54 1011.11 1010.67 1010.22 1009.78 1009.38 1008.99 1008.62 1008.24 1007.84 1007.39 1006.89 1006.33 1005.73
1021.25 1020.89 1020.50 1020.07 1019.60 1019.08 1018.54 1018.00 1017.47 1016.98 1016.54 1016.15 1015.82 1015.51 1015.24 1014.97 1014.71 1014.46 1014.21 1013.98 1013.77 1013.59 1013.43 1013.29 1013.15 1012.98 1012.76 1012.48 1012.14 1011.72 1011.25 1010.74 1010.23 1009.72 1009.23 1008.77 1008.33 1007.90 1007.46 1007.00 1006.51 1005.98 1005.42
1021.11 1020.81 1020.48 1020.10 1019.68 1019.20 1018.69 1018.17 1017.66 1017.18 1016.75 1016.37 1016.04 1015.76 1015.50 1015.26 1015.03 1014.80 1014.57 1014.35 1014.16 1013.98 1013.82 1013.68 1013.52 1013.34 1013.10 1012.80 1012.43 1011.98 1011.46 1010.90 1010.32 1009.74 1009.19 1008.66 1008.17 1007.69 1007.23 1006.76 1006.28 1005.77 1005.23
1020.99 1020.73 1020.45 1020.11 1019.73 1019.29 1018.81 1018.31 1017.82 1017.37 1016.96 1016.61 1016.32 1016.07 1015.85 1015.65 1015.45 1015.25 1015.04 1014.83 1014.64 1014.45 1014.28 1014.11 1013.92 1013.71 1013.44 1013.11 1012.70 1012.21 1011.65 1011.05 1010.42 1009.79 1009.19 1008.62 1008.09 1007.59 1007.12 1006.65 1006.18 1005.69 1005.18
1020.92 1020.69 1020.43 1020.13 1019.77 1019.35 1018.90 1018.43 1017.97 1017.54 1017.18 1016.87 1016.62 1016.41 1016.24 1016.08 1015.91 1015.73 1015.54 1015.33 1015.12 1014.91 1014.70 1014.49 1014.26 1013.99 1013.68 1013.30 1012.85 1012.32 1011.73 1011.10 1010.44 1009.79 1009.16 1008.58 1008.04 1007.55 1007.08 1006.63 1006.18 1005.71 1005.23
1020.90 1020.68 1020.44 1020.16 1019.81 1019.41 1018.98 1018.53 1018.10 1017.70 1017.37 1017.11 1016.90 1016.74 1016.60 1016.47 1016.33 1016.17 1015.98 1015.76 1015.52 1015.27 1015.01 1014.74 1014.45 1014.13 1013.75 1013.32 1012.83 1012.27 1011.65 1011.00 1010.33 1009.68 1009.06 1008.49 1007.98 1007.51 1007.07 1006.65 1006.23 1005.80 1005.34
1020.88 1020.69 1020.46 1020.19 1019.85 1019.46 1019.04 1018.61 1018.20 1017.83 1017.53 1017.30 1017.12 1016.99 1016.88 1016.77 1016.64 1016.47 1016.26 1016.02 1015.75 1015.45 1015.14 1014.81 1014.46 1014.07 1013.65 1013.17 1012.63 1012.04 1011.41 1010.76 1010.10 1009.47 1008.88 1008.34 1007.87 1007.45 1007.06 1006.68 1006.30 1005.90 1005.47
1020.85 1020.68 1020.47 1020.20 1019.87 1019.49 1019.08 1018.66 1018.27 1017.93 1017.65 1017.43 1017.27 1017.14 1017.03 1016.92 1016.78 1016.59 1016.36 1016.09 1015.78 1015.44 1015.08 1014.70 1014.31 1013.88 1013.41 1012.90 1012.34 1011.73 1011.10 1010.45 1009.82 1009.22 1008.66 1008.18 1007.75 1007.38 1007.04 1006.71 1006.37 1006.01 1005.61
1020.77 1020.63 1020.43 1020.18 1019.86 1019.50 1019.10 1018.70 1018.32 1017.99 1017.71 1017.50 1017.33 1017.19 1017.06 1016.92 1016.75 1016.53 1016.27 1015.97 1015.63 1015.26 1014.88 1014.48 1014.06 1013.61 1013.13 1012.60 1012.04 1011.44 1010.82 1010.19 1009.58 1009.01 1008.49 1008.04 1007.66 1007.33 1007.03 1006.74 1006.44 1006.11 1005.74
1020.64 1020.52 1020.35 1020.12 1019.82 1019.48 1019.10 1018.72 1018.35 1018.03 1017.75 1017.52 1017.33 1017.16 1016.99 1016.80 1016.58 1016.33 1016.04 1015.71 1015.35 1014.98 1014.60 1014.20 1013.79 1013.35 1012.89 1012.38 1011.84 1011.26 1010.66 1010.05 1009.46 1008.92 1008.43 1008.00 1007.64 1007.33 1007.06 1006.79 1006.51 1006.20 1005.85
1020.45 1020.36 1020.22 1020.01 1019.75 1019.43 1019.09 1018.73 1018.38 1018.06 1017.78 1017.52 1017.29 1017.07 1016.85 1016.61 1016.34 1016.04 1015.72 1015.38 1015.02 1014.66 1014.30 1013.94 1013.57 1013.17 1012.75 1012.28 1011.78 1011.23 1010.66 1010.07 1009.50 1008.97 1008.48 1008.06 1007.70 1007.39 1007.11 1006.85 1006.57 1006.27 1005.93
1020.23 1020.16 1020.05 1019.88 1019.65 1019.37 1019.06 1018.74 1018.42 1018.10 1017.81 1017.53 1017.25 1016.98 1016.69 1016.39 1016.07 1015.73 1015.38 1015.03 1014.68 1014.35 1014.03 1013.72 1013.41 1013.08 1012.71 1012.30 1011.84 1011.34 1010.79 1010.23 1009.67 1009.13 1008.63 1008.19 1007.81 1007.47 1007.17 1006.89 1006.60 1006.29 1005.96
1020.00 1019.94 1019.85 1019.71 1019.53 1019.30 1019.03 1018.75 1018.45 1018.15 1017.85 1017.54 1017.22 1016.89 1016.54 1016.18 1015.81 1015.43 1015.05 1014.70 1014.37 1014.07 1013.80 1013.55 1013.30 1013.03 1012.73 1012.38 1011.97 1011.50 1010.98 1010.42 1009.86 1009.31 1008.79 1008.32 1007.90 1007.53 1007.19 1006.87 1006.57 1006.25 1005.91
1019.75 1019.71 1019.64 1019.53 1019.38 1019.20 1018.98 1018.74 1018.47 1018.18 1017.87 1017.54 1017.19 1016.81 1016.41 1015.99 1015.57 1015.16 1014.77 1014.41 1014.10 1013.83 1013.60 1013.39 1013.19 1012.98 1012.72 1012.41 1012.04 1011.59 1011.09 1010.54 1009.97 1009.41 1008.87 1008.36 1007.91 1007.50 1007.12 1006.78 1006.45 1006.11 1005.77
1019.49 1019.45 1019.39 1019.31 1019.20 1019.05 1018.88 1018.67 1018.43 1018.15 1017.84 1017.50 1017.12 1016.70 1016.26 1015.81 1015.35 1014.91 1014.51 1014.15 1013.85 1013.59 1013.39 1013.21 1013.03 1012.84 1012.61 1012.32 1011.96 1011.52 1011.03 1010.48 1009.91 1009.34 1008.78 1008.26 1007.79 1007.36 1006.96 1006.60 1006.25 1005.91 1005.56
Thickness
5728 5727 5725 5723 5722 5720 5718 5716 5714 5713 5712 5711 5709 5708 5708 5708 5708 5707 5704 5702 5701 5700 5697 5697 5694 5693 5694 5692 5692 5691 5690 5690 5691 5690 5689 5691 5692 5691 5690 5690 5690 5689 5687
5722 5719 5718 5717 5715 5713 5711 5709 5708 5707 5707 5706 5704 5703 5703 5703 5703 5702 5700 5698 5698 5696 5695 5692 5691 5690 5689 5687 5687 5686 5686 5687 5687 5686 5684 5683 5685 5685 5688 5686 5685 5684 5684
5715 5714 5713 5712 5710 5708 5706 5705 5703 5702 5701 5701 5700 5699 5697 5697 5697 5696 5695 5694 5693 5691 5690 5689 5688 5687 5687 5685 5683 5683 5681 5681 5682 5683 5681 5678 5679 5680 5682 5681 5681 5679 5678
5712 5710 5709 5707 5705 5704 5703 5701 5699 5697 5695 5695 5695 5694 5692 5691 5690 5691 5691 5690 5689 5687 5686 5685 5682 5682 5683 5681 5680 5680 5678 5677 5677 5677 5676 5676 5676 5672 5673 5676 5677 5675 5673
5708 5705 5704 5702 5701 5701 5700 5697 5695 5692 5690 5690 5689 5687 5687 5686 5687 5686 5685 5685 5685 5683 5682 5680 5679 5677 5678 5676 5675 5674 5674 5674 5673 5673 5672 5671 5670 5669 5665 5664 5666 5668 5669
5703 5701 5701 5699 5698 5697 5696 5694 5690 5688 5686 5685 5684 5682 5681 5680 5680 5679 5680 5680 5681 5679 5678 5677 5675 5674 5673 5672 5672 5671 5670 5669 5668 5668 5668 5667 5665 5664 5662 5659 5658 5659 5661
5698 5696 5695 5694 5692 5692 5690 5689 5686 5683 5683 5681 5679 5678 5677 5676 5675 5675 5675 5676 5677 5676 5673 5673 5671 5670 5669 5668 5668 5666 5666 5665 5663 5662 5662 5663 5662 5661 5658 5654 5653 5653 5655
5693 5692 5691 5690 5688 5687 5686 5684 5682 5680 5679 5678 5676 5675 5673 5674 5673 5672 5673 5672 5672 5671 5669 5668 5667 5666 5665 5665 5664 5664 5662 5661 5659 5658 5656 5655 5656 5654 5652 5649 5647 5645 5647
5687 5688 5687 5686 5685 5684 5682 5681 5679 5677 5676 5674 5673 5671 5670 5669 5668 5667 5667 5668 5666 5667 5666 5665 5663 5662 5662 5661 5660 5660 5658 5656 5656 5655 5653 5651 5651 5649 5647 5645 5642 5638 5637
5683 5683 5683 5683 5682 5681 5679 5678 5676 5674 5673 5671 5669 5668 5667 5666 5664 5664 5663 5662 5662 5662 5662 5661 5660 5659 5659 5658 5656 5656 5654 5652 5651 5649 5647 5644 5645 5644 5642 5639 5637 5635 5631
5679 5679 5679 5679 5679 5678 5677 5674 5673 5671 5670 5668 5666 5664 5663 5662 5661 5660 5659 5659 5659 5659 5658 5658 5658 5657 5656 5655 5653 5652 5650 5648 5647 5645 5643 5641 5638 5637 5636 5634 5633 5630 5627
5678 5677 5675 5675 5674 5673 5673 5671 5670 5668 5666 5665 5663 5661 5660 5659 5659 5658 5657 5656 5656 5656 5656 5656 5655 5654 5653 5651 5649 5648 5647 5645 5643 5641 5638 5637 5635 5632 5630 5627 5626 5624 5621
5674 5674 5672 5670 5670 5669 5668 5668 5667 5665 5664 5663 5661 5659 5658 5657 5656 5656 5655 5655 5655 5654 5654 5653 5652 5651 5649 5648 5646 5644 5643 5641 5639 5637 5634 5632 5630 5626 5625 5621 5620 5617 5616
5670 5669 5668 5667 5667 5666 5666 5665 5664 5664 5663 5661 5659 5657 5657 5656 5656 5655 5654 5654 5653 5652 5651 5650 5649 5647 5646 5644 5642 5641 5640 5638 5635 5633 5631 5628 5625 5622 5618 5616 5613 5610 5607
5668 5666 5665 5664 5664 5664 5663 5663 5662 5662 5661 5660 5659 5657 5656 5656 5655 5654 5653 5652 5651 5650 5649 5647 5645 5644 5643 5640 5637 5636 5636 5633 5631 5630 5627 5625 5620 5615 5611 5609 5606 5602 5600
5666 5665 5664 5662 5662 5662 5661 5661 5660 5660 5660 5658 5658 5657 5656 5655 5654 5653 5651 5650 5648 5647 5646 5644 5643 5641 5640 5633 5630 5628 5630 5629 5628 5626 5623 5621 5618 5611 5606 5601 5598 5594 5592
5664 5663 5662 5661 5660 5660 5659 5659 5659 5659 5658 5657 5656 5655 5654 5653 5652 5652 5650 5648 5646 5644 5642 5641 5640 5638 5633 5628 5625 5623 5623 5625 5624 5621 5619 5617 5615 5608 5604 5599 5594 5591 5586
5664 5663 5662 5661 5660 5660 5659 5659 5659 5658 5657 5656 5656 5655 5654 5653 5651 5650 5647 5645 5644 5642 5640 5639 5638 5635 5631 5625 5622 5620 5622 5623 5621 5619 5615 5611 5608 5603 5597 5595 5593 5589 5585
5663 5662 5662 5661 5660 5660 5659 5659 5658 5658 5657 5656 5655 5655 5654 5652 5650 5647 5645 5643 5641 5640 5639 5638 5636 5634 5630 5624 5621 5617 5622 5622 5619 5617 5613 5608 5603 5595 5589 5589 5588 5585 5580
5662 5661 5661 5661 5660 5659 5659 5658 5657 5656 5655 5655 5655 5654 5652 5650 5648 5645 5643 5642 5640 5639 5638 5637 5636 5633 5630 5624 5619 5615 5621 5619 5618 5615 5611 5603 5597 5589 5584 5584 5582 5579 5576
5662 5661 5660 5660 5659 5658 5657 5656 5656 5655 5654 5655 5654 5652 5650 5648 5647 5644 5641 5640 5640 5639 5637 5636 5635 5632 5628 5623 5618 5614 5616 5616 5615 5613 5609 5603 5591 5586 5581 5578 5577 5573 5568
5661 5660 5658 5658 5658 5658 5656 5655 5654 5654 5654 5654 5653 5651 5649 5648 5647 5643 5641 5640 5638 5638 5637 5635 5634 5632 5627 5622 5617 5612 5609 5607 5608 5607 5604 5598 5588 5583 5579 5576 5571 5567 5564
5660 5659 5658 5656 5656 5656 5656 5654 5653 5654 5654 5653 5651 5650 5648 5647 5645 5643 5641 5640 5639 5639 5639 5637 5635 5632 5629 5623 5615 5611 5607 5604 5603 5602 5595 5590 5585 5581 5579 5574 5569 5566 5565
5659 5658 5657 5656 5654 5655 5655 5653 5653 5653 5652 5650 5649 5649 5647 5646 5644 5643 5643 5641 5640 5639 5638 5635 5633 5631 5628 5624 5618 5614 5610 5603 5601 5599 5594 5588 5584 5580 5576 5573 5571 5567 5562
5658 5658 5656 5655 5654 5654 5654 5653 5652 5651 5649 5648 5648 5648 5648 5647 5644 5643 5640 5639 5636 5634 5631 5630 5629 5627 5623 5615 5607 5607 5606 5603 5599 5594 5594 5592 5588 5584 5579 5575 5570 5565 5560
5657 5657 5656 5656 5656 5655 5654 5653 5652 5651 5648 5648 5647 5649 5649 5647 5647 5645 5642 5634 5631 5627 5624 5620 5618 5618 5612 5607 5603 5600 5597 5593 5590 5589 5591 5588 5584 5580 5576 5571 5567 5561 5557